Location: Arcueil
(48.7999°N, 2.3326°E)
Time: 09:02:21
(UTC+00:00)

Cosmos 1606 Rocket - Pass Details

Date: 03 February 2023
Orbit: 602 x 630 km, 82.5° (Epoch: 23 March)

Event Time Altitude Azimuth Distance (km) Brightness Sun altitude
Rises 18:28:18 0° 346° (NNW) 2,868 7.1 -16.2°
Reaches altitude 10° 18:30:33 10° 343° (NNW) 1,960 6.3 -16.5°
Maximum altitude 18:34:47 56° 265° (W) 723 4.2 -17.2°
Drops below altitude 10° 18:39:00 10° 187° (S) 1,949 6.3 -17.9°
Sets 18:41:13 0° 183° (S) 2,851 7.1 -18.3°
